Location: Bayshore Village Mobile Home Park
(26.6945°N, 81.8642°W)
Time: 01:34:28
(UTC+00:00)

Hubble Space Telescope - Pass Details

Date: 30 October 2021
Orbit: 534 x 538 km, 28.5° (Epoch: 30 November)

Event Time Altitude Azimuth Distance (km) Brightness Sun altitude
Rises 00:51:49 0° 266° (W) 2,662 5.6 -28.4°
Reaches altitude 10° 00:54:04 10° 268° (W) 1,772 4.4 -28.9°
Enters shadow 00:56:16 30° 274° (W) 958 2.5 -29.4°
